When you browse on this site, cookies collect data to enhance your experience and personalize the content and advertising you see.
Visit our Privacy Policy to learn more. By continuing to use the site, you agree to this use of cookies and data.
  • Em Portugal
  • Lista de países
  • Para 7 dias
  • Temperatura da água
  • Mapas de satélite
  • Mapa do tempo
  • Widgets de tempo
  • user-avatar
    Iniciar Sessão

    Previsão horária em Sadkino

    Hoje, 19 Abril, Sexta-feira

    Tempo Temperatura Precipitação Vento Pressão Humidade
    00:00 +4°C° 0 mm 2 m/s 754 mmHg 44%
    01:00 +3°C° 0 mm 2 m/s 754 mmHg 44%
    02:00 +3°C° 0 mm 2 m/s 754 mmHg 45%
    03:00 +3°C° 0 mm 1 m/s 755 mmHg 44%
    04:00 +2°C° 0 mm 2 m/s 755 mmHg 45%
    05:00 +2°C° 0 mm 2 m/s 755 mmHg 46%
    06:00 +2°C° 0 mm 2 m/s 755 mmHg 46%
    07:00 +3°C° 0 mm 2 m/s 755 mmHg 42%
    08:00 +5°C° 0 mm 2 m/s 755 mmHg 37%
    09:00 +7°C° 0 mm 2 m/s 755 mmHg 32%
    10:00 +8°C° 0 mm 3 m/s 755 mmHg 30%
    11:00 +9°C° 0 mm 3 m/s 755 mmHg 28%
    12:00 +9°C° 0 mm 3 m/s 755 mmHg 26%
    13:00 +10°C° 0 mm 3 m/s 755 mmHg 26%
    14:00 +10°C° 0 mm 2 m/s 755 mmHg 25%
    15:00 +10°C° 0 mm 2 m/s 755 mmHg 25%
    16:00 +10°C° 0 mm 2 m/s 755 mmHg 27%
    17:00 +10°C° 0 mm 2 m/s 755 mmHg 28%
    18:00 +10°C° 0 mm 2 m/s 754 mmHg 29%
    19:00 +9°C° 0 mm 2 m/s 755 mmHg 33%
    20:00 +9°C° 0 mm 1 m/s 755 mmHg 37%
    21:00 +7°C° 0 mm 1 m/s 755 mmHg 41%
    22:00 +7°C° 0 mm 1 m/s 755 mmHg 42%
    23:00 +5°C° 0 mm 0 m/s 755 mmHg 43%

    Amanhã, 20 Abril, Sábado

    Tempo Temperatura Precipitação Vento Pressão Humidade
    00:00 +5°C° 0 mm 0 m/s 755 mmHg 44%
    01:00 +4°C° 0 mm 0 m/s 754 mmHg 45%
    02:00 +4°C° 0 mm 0 m/s 754 mmHg 46%
    03:00 +4°C° 0 mm 0 m/s 754 mmHg 47%
    04:00 +4°C° 0 mm 0 m/s 754 mmHg 48%
    05:00 +3°C° 0 mm 0 m/s 754 mmHg 50%
    06:00 +3°C° 0 mm 0 m/s 754 mmHg 51%
    07:00 +5°C° 0 mm 0 m/s 754 mmHg 47%
    08:00 +8°C° 0 mm 1 m/s 754 mmHg 42%
    09:00 +10°C° 0 mm 1 m/s 754 mmHg 38%
    10:00 +10°C° 0 mm 1 m/s 754 mmHg 36%
    11:00 +11°C° 0 mm 1 m/s 754 mmHg 34%
    12:00 +12°C° 0 mm 1 m/s 754 mmHg 32%
    13:00 +12°C° 0 mm 1 m/s 754 mmHg 32%
    14:00 +12°C° 0 mm 2 m/s 754 mmHg 32%
    15:00 +12°C° 0 mm 2 m/s 754 mmHg 32%
    16:00 +12°C° 0 mm 2 m/s 754 mmHg 34%
    17:00 +12°C° 0 mm 1 m/s 753 mmHg 35%
    18:00 +12°C° 0 mm 1 m/s 753 mmHg 36%
    19:00 +11°C° 0 mm 1 m/s 754 mmHg 38%
    20:00 +9°C° 0 mm 0 m/s 754 mmHg 41%
    21:00 +9°C° 0 mm 0 m/s 754 mmHg 43%
    22:00 +8°C° 0 mm 0 m/s 754 mmHg 44%
    23:00 +8°C° 0 mm 0 m/s 754 mmHg 45%

    Depois de amanhã, 21 Abril, Domingo

    Tempo Temperatura Precipitação Vento Pressão Humidade
    00:00 +8°C° 0 mm 0 m/s 754 mmHg 46%
    01:00 +7°C° 0 mm 0 m/s 754 mmHg 47%
    02:00 +7°C° 0 mm 0 m/s 755 mmHg 48%
    03:00 +6°C° 0 mm 0 m/s 755 mmHg 49%
    04:00 +6°C° 0 mm 0 m/s 755 mmHg 50%
    05:00 +6°C° 0 mm 0 m/s 755 mmHg 51%
    06:00 +6°C° 0 mm 0 m/s 755 mmHg 52%
    07:00 +9°C° 0 mm 1 m/s 755 mmHg 48%
    08:00 +10°C° 0 mm 1 m/s 755 mmHg 44%
    09:00 +11°C° 0 mm 1 m/s 756 mmHg 40%
    10:00 +12°C° 0 mm 1 m/s 756 mmHg 37%
    11:00 +13°C° 0 mm 1 m/s 756 mmHg 34%
    12:00 +13°C° 0 mm 1 m/s 756 mmHg 32%
    13:00 +13°C° 0 mm 1 m/s 756 mmHg 32%
    14:00 +14°C° 0 mm 1 m/s 755 mmHg 32%
    15:00 +14°C° 0 mm 1 m/s 755 mmHg 32%
    16:00 +14°C° 0 mm 1 m/s 755 mmHg 33%
    17:00 +14°C° 0 mm 1 m/s 755 mmHg 35%
    18:00 +13°C° 0 mm 1 m/s 755 mmHg 36%
    19:00 +13°C° 0 mm 1 m/s 755 mmHg 39%
    20:00 +12°C° 0 mm 1 m/s 755 mmHg 42%
    21:00 +10°C° 0 mm 0 m/s 756 mmHg 45%
    22:00 +11°C° 0 mm 1 m/s 756 mmHg 46%
    23:00 +11°C° 0 mm 1 m/s 756 mmHg 47%

    22 Abril, Segunda-feira

    Tempo Temperatura Precipitação Vento Pressão Humidade
    00:00 +10°C° 0 mm 1 m/s 756 mmHg 48%
    01:00 +10°C° 0 mm 1 m/s 756 mmHg 49%
    02:00 +10°C° 0 mm 1 m/s 756 mmHg 50%
    03:00 +9°C° 0 mm 2 m/s 756 mmHg 51%
    04:00 +8°C° 0 mm 2 m/s 756 mmHg 53%
    05:00 +8°C° 0 mm 2 m/s 756 mmHg 54%
    06:00 +8°C° 0 mm 2 m/s 756 mmHg 56%
    07:00 +9°C° 0 mm 2 m/s 756 mmHg 52%
    08:00 +10°C° 0 mm 2 m/s 756 mmHg 48%
    09:00 +12°C° 0 mm 3 m/s 757 mmHg 44%
    10:00 +13°C° 0 mm 3 m/s 756 mmHg 41%
    11:00 +13°C° 0 mm 3 m/s 756 mmHg 38%
    12:00 +14°C° 0 mm 3 m/s 756 mmHg 35%
    13:00 +14°C° 0 mm 3 m/s 756 mmHg 36%
    14:00 +14°C° 0 mm 3 m/s 756 mmHg 36%
    15:00 +14°C° 0 mm 3 m/s 756 mmHg 37%
    16:00 +15°C° 0 mm 2 m/s 755 mmHg 39%
    17:00 +15°C° 0 mm 2 m/s 755 mmHg 41%
    18:00 +14°C° 0 mm 2 m/s 755 mmHg 42%
    19:00 +14°C° 0 mm 2 m/s 755 mmHg 44%
    20:00 +13°C° 0 mm 2 m/s 755 mmHg 46%
    21:00 +13°C° 0 mm 2 m/s 756 mmHg 48%
    22:00 +12°C° 0 mm 2 m/s 756 mmHg 53%
    23:00 +10°C° 0 mm 2 m/s 756 mmHg 58%

    23 Abril, Terça-feira

    Tempo Temperatura Precipitação Vento Pressão Humidade
    00:00 +9°C° 0 mm 2 m/s 756 mmHg 63%
    01:00 +9°C° 0 mm 2 m/s 756 mmHg 66%
    02:00 +8°C° 0 mm 2 m/s 756 mmHg 69%
    03:00 +8°C° 0 mm 3 m/s 756 mmHg 72%
    04:00 +8°C° 0 mm 3 m/s 756 mmHg 71%
    05:00 +8°C° 0 mm 3 m/s 756 mmHg 70%
    06:00 +8°C° 0 mm 3 m/s 756 mmHg 69%
    07:00 +9°C° 0 mm 3 m/s 756 mmHg 63%
    08:00 +11°C° 0 mm 4 m/s 756 mmHg 58%
    09:00 +13°C° 0 mm 4 m/s 757 mmHg 52%
    10:00 +14°C° 0 mm 4 m/s 756 mmHg 48%
    11:00 +15°C° 0 mm 4 m/s 756 mmHg 45%
    12:00 +16°C° 0 mm 5 m/s 756 mmHg 42%
    13:00 +16°C° 0 mm 5 m/s 756 mmHg 41%
    14:00 +16°C° 0 mm 5 m/s 756 mmHg 41%
    15:00 +17°C° 0 mm 4 m/s 755 mmHg 40%
    16:00 +17°C° 0 mm 4 m/s 755 mmHg 42%
    17:00 +17°C° 0 mm 4 m/s 755 mmHg 44%
    18:00 +17°C° 0 mm 3 m/s 755 mmHg 46%
    19:00 +16°C° 0 mm 3 m/s 755 mmHg 51%
    20:00 +13°C° 0 mm 3 m/s 755 mmHg 55%
    21:00 +12°C° 0 mm 3 m/s 755 mmHg 60%
    22:00 +11°C° 0 mm 3 m/s 756 mmHg 63%
    23:00 +11°C° 0 mm 3 m/s 756 mmHg 65%

    24 Abril, Quarta-feira

    Tempo Temperatura Precipitação Vento Pressão Humidade
    00:00 +10°C° 0 mm 3 m/s 756 mmHg 68%
    01:00 +10°C° 0 mm 3 m/s 756 mmHg 70%
    02:00 +9°C° 0 mm 3 m/s 756 mmHg 72%
    03:00 +9°C° 0 mm 3 m/s 756 mmHg 74%
    04:00 +9°C° 0 mm 3 m/s 756 mmHg 74%
    05:00 +9°C° 0 mm 3 m/s 756 mmHg 75%
    06:00 +9°C° 0 mm 3 m/s 756 mmHg 75%
    07:00 +10°C° 0 mm 3 m/s 757 mmHg 69%
    08:00 +12°C° 0 mm 3 m/s 757 mmHg 62%
    09:00 +14°C° 0 mm 3 m/s 757 mmHg 56%
    10:00 +15°C° 0 mm 4 m/s 757 mmHg 51%
    11:00 +18°C° 0 mm 4 m/s 757 mmHg 45%
    12:00 +19°C° 0 mm 5 m/s 756 mmHg 40%
    13:00 +20°C° 0 mm 4 m/s 756 mmHg 39%
    14:00 +20°C° 0 mm 4 m/s 756 mmHg 38%
    15:00 +21°C° 0 mm 4 m/s 756 mmHg 37%
    16:00 +20°C° 0 mm 4 m/s 756 mmHg 39%
    17:00 +20°C° 0 mm 4 m/s 756 mmHg 41%
    18:00 +20°C° 0 mm 3 m/s 756 mmHg 44%
    19:00 +18°C° 0 mm 3 m/s 756 mmHg 48%
    20:00 +17°C° 0 mm 3 m/s 756 mmHg 53%
    21:00 +15°C° 0 mm 2 m/s 756 mmHg 57%
    22:00 +15°C° 0 mm 2 m/s 756 mmHg 59%
    23:00 +14°C° 0 mm 2 m/s 756 mmHg 61%
    Mostrar mais